Location: Unspecified
(0.0000°N, 0.0000°E)
Time: 07:21:59
(UTC+02:00)

Cosmos 773 Rocket - Visible Passes

Search period start: 31 July 2014 00:00
Search period end: 10 August 2014 00:00
Orbit: 747 x 777 km, 74.1° (Epoch: 30 July)

Date Brightness Start Highest point End Pass type
(mag) Time Alt. Az. Time Alt. Az. Time Alt. Az.
04 Aug 6.6 22:47:02 13° NNW 22:47:02 13° NNW 22:47:35 10° NNW visible
05 Aug 4.1 21:59:14 10° SSW 22:04:24 72° WNW 22:09:30 10° N visible
06 Aug 4.0 21:20:44 10° S 21:25:45 51° ESE 21:30:43 10° NNE visible
07 Aug 5.0 20:43:00 10° SSE 20:47:06 24° ESE 20:51:09 10° NE visible
07 Aug 6.5 22:25:10 10° WSW 22:28:44 19° WNW 22:32:16 10° NNW visible
08 Aug 5.2 21:45:16 10° SSW 21:50:05 40° WNW 21:54:52 10° N visible
09 Aug 3.9 21:06:16 10° SSW 21:11:27 90° WNW 21:16:34 10° NNE visible
